Location: Unspecified
(42.3650°N, 71.1030°W)
Time: 15:21:04
(UTC+00:00)

S-56A Canister/Altair - Pass Details

Date: 25 June 2024
Orbit: 638 x 2487 km, 38.9° (Epoch: 20 July)

Event Time Altitude Azimuth Distance (km) Brightness Sun altitude
Rises 04:09:59 0° 274° (W) 4,627 11.7 -23.7°
Reaches altitude 10° 04:12:40 10° 272° (W) 3,864 11.2 -23.8°
Maximum altitude 04:23:18 71° 191° (S) 2,192 9.5 -24.0°
Drops below altitude 10° 04:37:48 10° 112° (ESE) 5,108 11.5 -24.2°
Sets 04:41:57 0° 110° (ESE) 6,156 11.9 -24.2°
